Time,TemperatureF,DewpointF,PressureIn,WindDirection,WindDirectionDegrees,WindSpeedMPH,WindSpeedGustMPH,Humidity,HourlyPrecipIn,Conditions,Clouds,dailyrainin,SoftwareType,DateUTC
2013-02-26 00:00:00,35.2,28.4,29.74,SE,135,0.0,0.0,76,0.00,RA,,0.00,WeatherDisplay:10.37,2013-02-26 05:00:00,
2013-02-26 00:01:00,35.2,28.4,29.73,SE,135,0.0,0.0,76,0.00,RA,,0.00,WeatherDisplay:10.37,2013-02-26 05:01:00,
2013-02-26 00:06:00,35.2,28.4,29.73,SE,135,0.0,0.0,76,0.00,RA,,0.00,WeatherDisplay:10.37,2013-02-26 05:06:00,
2013-02-26 00:11:00,35.2,28.4,29.72,SE,135,0.0,0.0,76,0.00,,,0.00,WeatherDisplay:10.37,2013-02-26 05:11:00,
2013-02-26 00:16:00,35.2,28.4,29.72,SE,135,0.0,0.0,76,0.00,,,0.00,WeatherDisplay:10.37,2013-02-26 05:16:00,
2013-02-26 00:21:00,35.1,28.6,29.70,SE,135,0.0,0.0,77,0.00,,,0.00,WeatherDisplay:10.37,2013-02-26 05:21:00,
2013-02-26 00:26:00,34.9,28.4,29.70,SE,135,0.0,0.0,77,0.00,,,0.00,WeatherDisplay:10.37,2013-02-26 05:26:00,
2013-02-26 00:31:00,35.1,28.6,29.70,SE,135,0.0,0.0,77,0.02,RA,,0.02,WeatherDisplay:10.37,2013-02-26 05:31:00,
2013-02-26 00:36:00,35.1,28.6,29.70,SE,135,0.0,0.0,77,0.02,RA,,0.02,WeatherDisplay:10.37,2013-02-26 05:36:00,
2013-02-26 00:41:00,35.2,28.8,29.70,SE,135,0.0,0.0,77,0.00,,,0.02,WeatherDisplay:10.37,2013-02-26 05:41:00,
2013-02-26 00:46:00,34.9,28.4,29.70,SE,135,0.0,0.0,77,0.00,,,0.02,WeatherDisplay:10.37,2013-02-26 05:46:00,
2013-02-26 00:51:00,34.9,28.4,29.71,SE,135,0.0,0.0,77,0.00,,,0.02,WeatherDisplay:10.37,2013-02-26 05:51:00,
2013-02-26 00:56:00,34.9,28.7,29.70,SE,135,0.0,0.0,78,0.00,,,0.02,WeatherDisplay:10.37,2013-02-26 05:56:00,
2013-02-26 01:01:00,34.7,28.5,29.70,SE,135,0.0,0.0,78,0.02,,,0.02,WeatherDisplay:10.37,2013-02-26 06:01:00,
2013-02-26 01:06:00,34.7,28.5,29.70,SE,135,0.0,0.0,78,0.02,,,0.02,WeatherDisplay:10.37,2013-02-26 06:06:00,
2013-02-26 01:11:00,34.5,28.4,29.69,SE,135,0.0,0.0,78,0.02,,,0.02,WeatherDisplay:10.37,2013-02-26 06:11:00,
2013-02-26 01:16:00,34.5,28.7,29.70,SE,135,0.0,0.0,79,0.04,RA,,0.04,WeatherDisplay:10.37,2013-02-26 06:16:00,
2013-02-26 01:21:00,34.5,28.7,29.69,SE,135,0.0,0.0,79,0.04,RA,,0.04,WeatherDisplay:10.37,2013-02-26 06:21:00,
2013-02-26 01:26:00,34.3,28.5,29.69,SE,135,0.0,0.0,79,0.04,,,0.04,WeatherDisplay:10.37,2013-02-26 06:26:00,
2013-02-26 01:31:00,34.3,28.5,29.69,SE,135,0.0,0.0,79,0.02,,,0.04,WeatherDisplay:10.37,2013-02-26 06:31:00,
2013-02-26 01:36:00,34.3,28.5,29.69,SE,135,0.0,0.0,79,0.02,,,0.04,WeatherDisplay:10.37,2013-02-26 06:36:00,
2013-02-26 01:41:00,34.3,28.8,29.68,SE,135,0.0,0.0,80,0.02,,,0.04,WeatherDisplay:10.37,2013-02-26 06:41:00,
2013-02-26 01:46:00,34.3,28.8,29.68,SE,135,0.0,0.0,80,0.04,RA,,0.07,WeatherDisplay:10.37,2013-02-26 06:46:00,
2013-02-26 01:51:00,34.3,28.8,29.68,SE,135,0.0,0.0,80,0.04,RA,,0.07,WeatherDisplay:10.37,2013-02-26 06:51:00,
2013-02-26 01:56:00,34.3,28.8,29.68,SE,135,0.0,0.0,80,0.04,,,0.07,WeatherDisplay:10.37,2013-02-26 06:56:00,
2013-02-26 02:01:00,34.3,28.8,29.68,SE,135,0.0,0.0,80,0.04,,,0.07,WeatherDisplay:10.37,2013-02-26 07:01:00,
2013-02-26 02:06:00,34.3,28.8,29.67,SE,135,0.0,0.0,80,0.04,,,0.07,WeatherDisplay:10.37,2013-02-26 07:06:00,
2013-02-26 02:11:00,34.3,28.8,29.67,SE,135,0.0,0.0,80,0.04,,,0.07,WeatherDisplay:10.37,2013-02-26 07:11:00,
2013-02-26 02:16:00,34.3,28.8,29.66,SE,135,0.0,0.0,80,0.04,RA,,0.09,WeatherDisplay:10.37,2013-02-26 07:16:00,
2013-02-26 02:21:00,34.3,28.8,29.66,SE,135,0.0,0.0,80,0.04,RA,,0.09,WeatherDisplay:10.37,2013-02-26 07:21:00,
2013-02-26 02:26:00,34.3,28.8,29.66,SE,135,0.0,0.0,80,0.04,,,0.09,WeatherDisplay:10.37,2013-02-26 07:26:00,
2013-02-26 02:31:00,34.3,28.8,29.65,SE,135,0.0,0.0,80,0.04,,,0.09,WeatherDisplay:10.37,2013-02-26 07:31:00,
2013-02-26 02:36:00,34.2,28.6,29.64,SE,135,0.0,0.0,80,0.04,,,0.09,WeatherDisplay:10.37,2013-02-26 07:36:00,
2013-02-26 02:41:00,34.2,28.6,29.64,SE,135,0.0,0.0,80,0.04,,,0.09,WeatherDisplay:10.37,2013-02-26 07:41:00,
2013-02-26 02:46:00,34.2,28.6,29.64,SE,135,0.0,0.0,80,0.04,RA,,0.11,WeatherDisplay:10.37,2013-02-26 07:46:00,
2013-02-26 02:51:00,34.2,28.9,29.64,SE,135,0.0,0.0,81,0.04,RA,,0.11,WeatherDisplay:10.37,2013-02-26 07:51:00,
2013-02-26 02:56:00,34.2,28.6,29.64,SE,135,0.0,0.0,80,0.04,,,0.11,WeatherDisplay:10.37,2013-02-26 07:56:00,
2013-02-26 03:01:00,34.2,28.9,29.64,SE,135,0.0,0.0,81,0.04,,,0.11,WeatherDisplay:10.37,2013-02-26 08:01:00,
2013-02-26 03:06:00,34.2,28.9,29.64,SE,135,0.0,0.0,81,0.04,,,0.11,WeatherDisplay:10.37,2013-02-26 08:06:00,
2013-02-26 03:11:00,34.0,28.8,29.63,SE,135,0.0,0.0,81,0.07,RA,,0.13,WeatherDisplay:10.37,2013-02-26 08:11:00,
2013-02-26 03:16:00,34.0,28.8,29.63,SE,135,0.0,0.0,81,0.04,RA,,0.13,WeatherDisplay:10.37,2013-02-26 08:16:00,
2013-02-26 03:21:00,34.0,28.8,29.62,SE,135,0.0,0.0,81,0.04,,,0.16,WeatherDisplay:10.37,2013-02-26 08:21:00,
2013-02-26 03:26:00,34.0,28.8,29.62,SE,135,0.0,0.0,81,0.09,RA,,0.18,WeatherDisplay:10.37,2013-02-26 08:26:00,
2013-02-26 03:31:00,34.0,28.8,29.63,SE,135,0.0,0.0,81,0.11,RA,,0.20,WeatherDisplay:10.37,2013-02-26 08:31:00,
2013-02-26 03:36:00,34.0,28.8,29.63,SE,135,0.0,0.0,81,0.14,RA,,0.23,WeatherDisplay:10.37,2013-02-26 08:36:00,
2013-02-26 03:41:00,34.0,28.8,29.63,SE,135,0.0,0.0,81,0.14,RA,,0.23,WeatherDisplay:10.37,2013-02-26 08:41:00,
2013-02-26 03:46:00,34.2,29.2,29.63,SE,135,0.0,0.0,82,0.11,,,0.25,WeatherDisplay:10.37,2013-02-26 08:46:00,
2013-02-26 03:51:00,34.2,29.2,29.63,SE,135,0.0,0.0,82,0.14,RA,,0.25,WeatherDisplay:10.37,2013-02-26 08:51:00,
2013-02-26 03:56:00,34.0,29.1,29.62,SE,135,0.0,0.0,82,0.16,RA,,0.27,WeatherDisplay:10.37,2013-02-26 08:56:00,
2013-02-26 04:01:00,34.0,29.1,29.63,SE,135,0.0,0.0,82,0.18,RA,,0.29,WeatherDisplay:10.37,2013-02-26 09:01:00,
2013-02-26 04:06:00,34.0,29.1,29.63,SE,135,0.0,0.0,82,0.20,RA,,0.31,WeatherDisplay:10.37,2013-02-26 09:06:00,
2013-02-26 04:11:00,34.0,29.1,29.63,SE,135,0.0,0.0,82,0.18,RA,,0.31,WeatherDisplay:10.37,2013-02-26 09:11:00,
2013-02-26 04:16:00,34.2,29.2,29.62,SE,135,0.0,0.0,82,0.18,,,0.31,WeatherDisplay:10.37,2013-02-26 09:16:00,
2013-02-26 04:21:00,34.2,29.2,29.62,SE,135,0.0,0.0,82,0.20,RA,,0.34,WeatherDisplay:10.37,2013-02-26 09:21:00,
2013-02-26 04:26:00,34.2,29.2,29.62,SE,135,0.0,0.0,82,0.16,RA,,0.34,WeatherDisplay:10.37,2013-02-26 09:26:00,
2013-02-26 04:31:00,34.3,29.4,29.61,SE,135,0.0,0.0,82,0.16,RA,,0.36,WeatherDisplay:10.37,2013-02-26 09:31:00,
2013-02-26 04:36:00,34.3,29.4,29.61,SE,135,0.0,0.0,82,0.16,RA,,0.38,WeatherDisplay:10.37,2013-02-26 09:36:00,
2013-02-26 04:41:00,34.3,29.1,29.60,SE,135,0.0,0.0,81,0.16,RA,,0.38,WeatherDisplay:10.37,2013-02-26 09:41:00,
2013-02-26 04:46:00,34.3,29.1,29.61,SE,135,0.0,0.0,81,0.18,RA,,0.40,WeatherDisplay:10.37,2013-02-26 09:46:00,
2013-02-26 04:51:00,34.3,29.1,29.60,SE,135,0.0,0.0,81,0.18,RA,,0.43,WeatherDisplay:10.37,2013-02-26 09:51:00,
2013-02-26 04:56:00,34.5,29.6,29.61,SE,135,0.0,0.0,82,0.16,RA,,0.43,WeatherDisplay:10.37,2013-02-26 09:56:00,
2013-02-26 05:01:00,34.5,29.6,29.61,SE,135,0.0,0.0,82,0.16,RA,,0.45,WeatherDisplay:10.37,2013-02-26 10:01:00,
2013-02-26 05:06:00,34.5,29.6,29.61,SE,135,0.0,0.0,82,0.16,RA,,0.47,WeatherDisplay:10.37,2013-02-26 10:06:00,
2013-02-26 05:11:00,34.5,29.6,29.60,SE,135,0.0,0.0,82,0.16,RA,,0.47,WeatherDisplay:10.37,2013-02-26 10:11:00,
2013-02-26 05:16:00,34.5,29.6,29.60,SE,135,0.0,0.0,82,0.18,RA,,0.49,WeatherDisplay:10.37,2013-02-26 10:16:00,
2013-02-26 05:21:00,34.7,30.1,29.60,SE,135,0.0,0.0,83,0.18,RA,,0.52,WeatherDisplay:10.37,2013-02-26 10:21:00,
2013-02-26 05:26:00,34.7,30.1,29.60,SE,135,0.0,0.0,83,0.18,RA,,0.52,WeatherDisplay:10.37,2013-02-26 10:26:00,
2013-02-26 05:31:00,34.7,30.1,29.60,SE,135,0.0,0.0,83,0.18,RA,,0.54,WeatherDisplay:10.37,2013-02-26 10:31:00,
2013-02-26 05:36:00,34.7,30.1,29.59,SE,135,0.0,0.0,83,0.16,RA,,0.54,WeatherDisplay:10.37,2013-02-26 10:36:00,
2013-02-26 05:41:00,34.7,30.1,29.59,SE,135,0.0,0.0,83,0.18,RA,,0.56,WeatherDisplay:10.37,2013-02-26 10:41:00,
2013-02-26 05:46:00,34.9,30.2,29.59,SE,135,0.0,0.0,83,0.18,RA,,0.58,WeatherDisplay:10.37,2013-02-26 10:46:00,
2013-02-26 05:51:00,34.9,30.2,29.58,SE,135,0.0,0.0,83,0.16,RA,,0.58,WeatherDisplay:10.37,2013-02-26 10:51:00,
2013-02-26 05:56:00,34.7,30.1,29.57,SE,135,0.0,0.0,83,0.18,RA,,0.61,WeatherDisplay:10.37,2013-02-26 10:56:00,
2013-02-26 06:01:00,34.7,30.1,29.57,SE,135,0.0,0.0,83,0.16,RA,,0.61,WeatherDisplay:10.37,2013-02-26 11:01:00,
2013-02-26 06:06:00,34.7,30.1,29.57,SE,135,0.0,0.0,83,0.16,RA,,0.63,WeatherDisplay:10.37,2013-02-26 11:06:00,
2013-02-26 06:11:00,34.7,30.1,29.57,SE,135,0.0,0.0,83,0.16,RA,,0.63,WeatherDisplay:10.37,2013-02-26 11:11:00,
2013-02-26 06:16:00,34.7,30.1,29.57,SE,135,0.0,0.0,83,0.13,,,0.63,WeatherDisplay:10.37,2013-02-26 11:16:00,
2013-02-26 06:21:00,34.5,29.9,29.57,SE,135,0.0,0.0,83,0.11,,,0.63,WeatherDisplay:10.37,2013-02-26 11:21:00,
2013-02-26 06:26:00,34.5,29.9,29.57,SE,135,0.0,0.0,83,0.13,RA,,0.65,WeatherDisplay:10.37,2013-02-26 11:26:00,
2013-02-26 06:31:00,34.3,29.7,29.57,SE,135,0.0,0.0,83,0.11,RA,,0.67,WeatherDisplay:10.37,2013-02-26 11:31:00,
2013-02-26 06:36:00,34.3,29.7,29.57,SE,135,0.0,0.0,83,0.16,RA,,0.70,WeatherDisplay:10.37,2013-02-26 11:36:00,
2013-02-26 06:41:00,34.3,29.7,29.57,SE,135,0.0,0.0,83,0.16,RA,,0.72,WeatherDisplay:10.37,2013-02-26 11:41:00,
2013-02-26 06:46:00,34.3,29.7,29.57,SE,135,0.0,0.0,83,0.16,RA,,0.74,WeatherDisplay:10.37,2013-02-26 11:46:00,
2013-02-26 06:51:00,34.3,29.7,29.57,SE,135,0.0,0.0,83,0.18,RA,,0.79,WeatherDisplay:10.37,2013-02-26 11:51:00,
2013-02-26 06:56:00,34.3,29.7,29.57,SE,135,0.0,0.0,83,0.20,RA,,0.81,WeatherDisplay:10.37,2013-02-26 11:56:00,
2013-02-26 07:01:00,34.3,29.7,29.56,SE,135,0.0,0.0,83,0.22,RA,,0.83,WeatherDisplay:10.37,2013-02-26 12:01:00,
2013-02-26 07:06:00,34.3,29.7,29.57,SE,135,0.0,0.0,83,0.22,RA,,0.85,WeatherDisplay:10.37,2013-02-26 12:06:00,
2013-02-26 07:11:00,34.3,30.0,29.55,SE,135,0.0,0.0,84,0.27,RA,,0.90,WeatherDisplay:10.37,2013-02-26 12:11:00,
2013-02-26 07:16:00,34.2,29.8,29.56,SE,135,0.0,0.0,84,0.27,RA,,0.90,WeatherDisplay:10.37,2013-02-26 12:16:00,
2013-02-26 07:21:00,34.2,29.8,29.55,SE,135,0.0,0.0,84,0.29,RA,,0.92,WeatherDisplay:10.37,2013-02-26 12:21:00,
2013-02-26 07:26:00,34.2,29.8,29.54,SE,135,0.0,0.0,84,0.29,RA,,0.97,WeatherDisplay:10.37,2013-02-26 12:26:00,
2013-02-26 07:31:00,34.3,30.0,29.54,SE,135,0.0,0.0,84,0.31,RA,,0.99,WeatherDisplay:10.37,2013-02-26 12:31:00,
2013-02-26 07:36:00,34.3,30.0,29.53,SE,135,0.0,0.0,84,0.29,RA,,0.99,WeatherDisplay:10.37,2013-02-26 12:36:00,
2013-02-26 07:41:00,34.3,30.0,29.53,SE,135,0.0,0.0,84,0.29,RA,,1.01,WeatherDisplay:10.37,2013-02-26 12:41:00,
2013-02-26 07:46:00,34.3,30.0,29.54,SE,135,0.0,0.0,84,0.29,RA,,1.06,WeatherDisplay:10.37,2013-02-26 12:46:00,
2013-02-26 07:51:00,34.3,30.0,29.54,SE,135,0.0,0.0,84,0.31,RA,,1.08,WeatherDisplay:10.37,2013-02-26 12:51:00,
2013-02-26 07:56:00,34.2,29.8,29.53,SE,135,0.0,0.0,84,0.29,RA,,1.12,WeatherDisplay:10.37,2013-02-26 12:56:00,
2013-02-26 08:01:00,34.2,30.1,29.53,SE,135,0.0,0.0,85,0.31,RA,,1.14,WeatherDisplay:10.37,2013-02-26 13:01:00,
2013-02-26 08:06:00,34.3,30.3,29.55,SE,135,0.0,0.0,85,0.32,RA,,1.17,WeatherDisplay:10.37,2013-02-26 13:06:00,
2013-02-26 08:11:00,34.3,30.3,29.56,SE,135,0.0,0.0,85,0.29,RA,,1.19,WeatherDisplay:10.37,2013-02-26 13:11:00,
2013-02-26 08:16:00,34.5,30.5,29.55,SE,135,0.9,3.5,85,0.29,RA,,1.19,WeatherDisplay:10.37,2013-02-26 13:16:00,
2013-02-26 08:21:00,34.3,30.3,29.54,SE,135,0.0,0.0,85,0.31,RA,,1.23,WeatherDisplay:10.37,2013-02-26 13:21:00,
2013-02-26 08:26:00,34.3,30.3,29.54,SE,135,0.0,0.0,85,0.29,RA,,1.23,WeatherDisplay:10.37,2013-02-26 13:26:00,
2013-02-26 08:31:00,34.5,30.5,29.54,SE,135,0.0,0.0,85,0.29,RA,,1.26,WeatherDisplay:10.37,2013-02-26 13:31:00,
2013-02-26 08:36:00,34.5,30.5,29.53,SE,135,0.0,0.0,85,0.29,RA,,1.30,WeatherDisplay:10.37,2013-02-26 13:36:00,
2013-02-26 08:41:00,34.5,30.5,29.53,SE,135,0.0,0.0,85,0.29,RA,,1.30,WeatherDisplay:10.37,2013-02-26 13:41:00,
2013-02-26 08:46:00,34.5,30.5,29.53,SE,135,0.0,0.0,85,0.27,RA,,1.30,WeatherDisplay:10.37,2013-02-26 13:46:00,
2013-02-26 08:51:00,34.5,30.5,29.53,SE,135,0.0,0.0,85,0.22,,,1.32,WeatherDisplay:10.37,2013-02-26 13:51:00,
2013-02-26 08:56:00,34.5,30.5,29.52,SE,135,0.0,0.0,85,0.22,RA,,1.32,WeatherDisplay:10.37,2013-02-26 13:56:00,
2013-02-26 09:01:00,34.3,30.3,29.51,SE,135,0.0,0.0,85,0.20,RA,,1.35,WeatherDisplay:10.37,2013-02-26 14:01:00,
2013-02-26 09:06:00,34.5,30.5,29.51,SE,135,0.0,0.0,85,0.20,RA,,1.37,WeatherDisplay:10.37,2013-02-26 14:06:00,
2013-02-26 09:11:00,34.5,30.5,29.50,SE,135,0.0,0.0,85,0.20,RA,,1.41,WeatherDisplay:10.37,2013-02-26 14:11:00,
2013-02-26 09:16:00,34.5,30.5,29.50,SE,135,0.0,0.0,85,0.25,RA,,1.44,WeatherDisplay:10.37,2013-02-26 14:16:00,
2013-02-26 09:21:00,34.5,30.5,29.50,SE,135,0.0,0.0,85,0.23,RA,,1.46,WeatherDisplay:10.37,2013-02-26 14:21:00,
2013-02-26 09:26:00,34.7,30.7,29.51,SE,135,0.0,0.0,85,0.23,RA,,1.46,WeatherDisplay:10.37,2013-02-26 14:26:00,
2013-02-26 09:31:00,34.7,30.7,29.51,SE,135,0.0,0.0,85,0.23,RA,,1.48,WeatherDisplay:10.37,2013-02-26 14:31:00,
2013-02-26 09:36:00,34.9,30.8,29.51,SE,135,0.0,0.0,85,0.21,RA,,1.48,WeatherDisplay:10.37,2013-02-26 14:36:00,
2013-02-26 09:41:00,34.7,30.7,29.51,SE,135,0.0,0.0,85,0.21,RA,,1.51,WeatherDisplay:10.37,2013-02-26 14:41:00,
2013-02-26 09:46:00,34.9,30.8,29.50,SE,135,0.0,0.0,85,0.23,RA,,1.53,WeatherDisplay:10.37,2013-02-26 14:46:00,
2013-02-26 09:51:00,34.9,30.8,29.50,SE,135,0.0,0.0,85,0.23,RA,,1.53,WeatherDisplay:10.37,2013-02-26 14:51:00,
2013-02-26 09:56:00,34.9,30.8,29.50,SE,135,0.0,0.0,85,0.21,,,1.53,WeatherDisplay:10.37,2013-02-26 14:56:00,
2013-02-26 10:01:00,34.9,30.8,29.50,SE,135,0.0,0.0,85,0.18,,,1.53,WeatherDisplay:10.37,2013-02-26 15:01:00,
2013-02-26 10:06:00,35.1,31.0,29.48,SE,135,0.0,0.0,85,0.16,,,1.53,WeatherDisplay:10.37,2013-02-26 15:06:00,
2013-02-26 10:11:00,35.1,31.0,29.48,SE,135,0.0,0.0,85,0.14,,,1.53,WeatherDisplay:10.37,2013-02-26 15:11:00,
2013-02-26 10:16:00,35.2,31.5,29.47,SE,135,0.0,0.0,86,0.09,,,1.53,WeatherDisplay:10.37,2013-02-26 15:16:00,
2013-02-26 10:21:00,35.2,31.5,29.47,SE,135,0.0,0.0,86,0.07,,,1.53,WeatherDisplay:10.37,2013-02-26 15:21:00,
2013-02-26 10:26:00,35.2,31.5,29.47,SE,135,0.0,0.0,86,0.07,,,1.53,WeatherDisplay:10.37,2013-02-26 15:26:00,
2013-02-26 10:31:00,35.2,31.5,29.47,SE,135,0.0,0.0,86,0.04,,,1.53,WeatherDisplay:10.37,2013-02-26 15:31:00,
2013-02-26 10:36:00,35.4,31.6,29.45,SE,135,0.0,0.0,86,0.04,,,1.53,WeatherDisplay:10.37,2013-02-26 15:36:00,
2013-02-26 10:41:00,35.4,31.6,29.45,SE,135,0.0,0.0,86,0.02,,,1.53,WeatherDisplay:10.37,2013-02-26 15:41:00,
2013-02-26 10:46:00,35.4,31.6,29.44,SE,135,0.0,0.0,86,0.00,,,1.53,WeatherDisplay:10.37,2013-02-26 15:46:00,
2013-02-26 10:51:00,35.4,31.6,29.43,SE,135,0.0,0.0,86,0.00,,,1.53,WeatherDisplay:10.37,2013-02-26 15:51:00,
2013-02-26 10:57:00,35.4,31.6,29.43,SE,135,0.0,0.0,86,0.00,,,1.53,WeatherDisplay:10.37,2013-02-26 15:57:00,
2013-02-26 11:02:00,35.8,32.0,29.43,SE,135,0.0,0.0,86,0.00,,,1.53,WeatherDisplay:10.37,2013-02-26 16:02:00,
2013-02-26 11:07:00,35.8,32.0,29.44,SE,135,0.0,0.0,86,0.00,,,1.53,WeatherDisplay:10.37,2013-02-26 16:07:00,
2013-02-26 11:12:00,35.8,32.0,29.45,SE,135,0.0,0.0,86,0.00,,,1.53,WeatherDisplay:10.37,2013-02-26 16:12:00,
2013-02-26 11:17:00,35.8,31.7,29.44,SE,135,0.0,0.0,85,0.00,,,1.53,WeatherDisplay:10.37,2013-02-26 16:17:00,
2013-02-26 11:22:00,35.8,31.7,29.44,SE,135,0.0,0.0,85,0.00,,,1.53,WeatherDisplay:10.37,2013-02-26 16:22:00,
2013-02-26 11:27:00,35.8,31.7,29.44,SE,135,0.0,0.0,85,0.00,,,1.53,WeatherDisplay:10.37,2013-02-26 16:27:00,
2013-02-26 11:32:00,35.4,31.4,29.44,SE,135,0.0,0.0,85,0.00,,,1.53,WeatherDisplay:10.37,2013-02-26 16:32:00,
2013-02-26 11:37:00,35.4,31.6,29.44,SE,135,0.0,0.0,86,0.00,,,1.53,WeatherDisplay:10.37,2013-02-26 16:37:00,
2013-02-26 11:42:00,35.8,32.0,29.44,SE,135,0.0,0.0,86,0.00,,,1.53,WeatherDisplay:10.37,2013-02-26 16:42:00,
2013-02-26 11:47:00,35.8,32.0,29.43,SE,135,0.0,0.0,86,0.00,,,1.53,WeatherDisplay:10.37,2013-02-26 16:47:00,
2013-02-26 11:52:00,36.0,32.2,29.42,SE,135,0.0,0.0,86,0.00,,,1.53,WeatherDisplay:10.37,2013-02-26 16:52:00,
2013-02-26 11:57:00,36.1,32.4,29.42,SE,135,0.0,0.0,86,0.00,,,1.53,WeatherDisplay:10.37,2013-02-26 16:57:00,
2013-02-26 12:02:00,36.1,32.1,29.41,SE,135,0.0,0.0,85,0.00,,,1.53,WeatherDisplay:10.37,2013-02-26 17:02:00,
2013-02-26 12:07:00,36.3,32.2,29.42,SE,135,0.0,0.0,85,0.00,,,1.53,WeatherDisplay:10.37,2013-02-26 17:07:00,
2013-02-26 12:12:00,36.3,32.5,29.41,SE,135,0.0,0.0,86,0.00,,,1.53,WeatherDisplay:10.37,2013-02-26 17:12:00,
2013-02-26 12:17:00,36.3,32.5,29.41,SE,135,0.0,0.0,86,0.02,RA,,1.55,WeatherDisplay:10.37,2013-02-26 17:17:00,
2013-02-26 12:22:00,36.5,32.7,29.42,SE,135,0.0,0.0,86,0.02,RA,,1.55,WeatherDisplay:10.37,2013-02-26 17:22:00,
2013-02-26 12:27:00,36.7,32.6,29.42,SE,135,0.0,0.0,85,0.04,RA,,1.57,WeatherDisplay:10.37,2013-02-26 17:27:00,
2013-02-26 12:32:00,36.7,32.6,29.42,SW,225,0.5,2.3,85,0.07,RA,,1.60,WeatherDisplay:10.37,2013-02-26 17:32:00,
2013-02-26 12:37:00,36.7,32.6,29.41,West,270,0.0,2.3,85,0.07,RA,,1.60,WeatherDisplay:10.37,2013-02-26 17:37:00,
2013-02-26 12:42:00,36.7,32.6,29.42,SSW,202,0.0,0.0,85,0.07,,,1.60,WeatherDisplay:10.37,2013-02-26 17:42:00,
2013-02-26 12:47:00,36.9,32.8,29.41,WSW,248,0.0,0.0,85,0.09,RA,,1.62,WeatherDisplay:10.37,2013-02-26 17:47:00,
2013-02-26 12:52:00,36.9,32.8,29.41,South,180,1.7,3.5,85,0.09,RA,,1.62,WeatherDisplay:10.37,2013-02-26 17:52:00,
2013-02-26 12:57:00,36.9,32.8,29.40,WSW,248,0.1,2.0,85,0.09,,,1.62,WeatherDisplay:10.37,2013-02-26 17:57:00,
2013-02-26 13:02:00,37.0,32.9,29.40,WSW,248,0.1,2.3,85,0.11,RA,,1.64,WeatherDisplay:10.37,2013-02-26 18:02:00,
2013-02-26 13:07:00,37.2,33.1,29.39,South,180,1.8,5.8,85,0.11,RA,,1.64,WeatherDisplay:10.37,2013-02-26 18:07:00,
2013-02-26 13:12:00,37.2,33.1,29.40,SSE,158,0.4,1.1,85,0.11,,,1.64,WeatherDisplay:10.37,2013-02-26 18:12:00,
2013-02-26 13:17:00,37.2,33.1,29.40,SSW,202,1.1,5.8,85,0.09,,,1.64,WeatherDisplay:10.37,2013-02-26 18:17:00,
2013-02-26 13:22:00,37.2,33.1,29.40,SSE,158,0.0,0.0,85,0.09,,,1.64,WeatherDisplay:10.37,2013-02-26 18:22:00,
2013-02-26 13:27:00,37.2,33.4,29.39,SSE,158,0.4,2.3,86,0.07,,,1.64,WeatherDisplay:10.37,2013-02-26 18:27:00,
2013-02-26 13:32:00,37.2,33.4,29.38,SSW,202,0.0,0.0,86,0.04,,,1.64,WeatherDisplay:10.37,2013-02-26 18:32:00,
2013-02-26 13:37:00,37.2,33.4,29.38,ESE,112,0.2,1.1,86,0.04,,,1.64,WeatherDisplay:10.37,2013-02-26 18:37:00,
2013-02-26 13:42:00,37.2,33.4,29.38,South,180,0.0,0.0,86,0.04,,,1.64,WeatherDisplay:10.37,2013-02-26 18:42:00,
2013-02-26 13:47:00,37.6,33.8,29.37,SSW,202,0.0,0.0,86,0.02,,,1.64,WeatherDisplay:10.37,2013-02-26 18:47:00,
2013-02-26 13:52:00,37.8,33.9,29.37,SSW,202,0.0,0.0,86,0.02,,,1.64,WeatherDisplay:10.37,2013-02-26 18:52:00,
2013-02-26 13:57:00,37.8,33.9,29.36,SW,225,0.0,2.3,86,0.02,,,1.64,WeatherDisplay:10.37,2013-02-26 18:57:00,
2013-02-26 14:02:00,37.9,34.1,29.36,SSE,158,0.0,0.0,86,0.00,,,1.64,WeatherDisplay:10.37,2013-02-26 19:02:00,
2013-02-26 14:07:00,37.9,34.1,29.36,SSE,158,0.0,0.0,86,0.00,,,1.64,WeatherDisplay:10.37,2013-02-26 19:07:00,
2013-02-26 14:12:00,37.9,33.8,29.35,South,180,0.0,1.1,85,0.00,,,1.64,WeatherDisplay:10.37,2013-02-26 19:12:00,
2013-02-26 14:17:00,37.9,33.8,29.35,SW,225,0.0,0.0,85,0.00,,,1.64,WeatherDisplay:10.37,2013-02-26 19:17:00,
2013-02-26 14:22:00,38.1,34.3,29.35,WSW,248,0.3,1.1,86,0.00,,,1.64,WeatherDisplay:10.37,2013-02-26 19:22:00,
2013-02-26 14:27:00,38.3,34.2,29.35,SSE,158,0.0,0.0,85,0.00,,,1.64,WeatherDisplay:10.37,2013-02-26 19:27:00,
2013-02-26 14:32:00,38.3,34.2,29.35,SSE,158,0.0,0.0,85,0.00,,,1.64,WeatherDisplay:10.37,2013-02-26 19:32:00,
2013-02-26 14:37:00,38.3,34.2,29.35,SSE,158,0.0,0.0,85,0.00,,,1.64,WeatherDisplay:10.37,2013-02-26 19:37:00,
2013-02-26 14:42:00,38.5,34.7,29.35,SW,225,0.0,0.0,86,0.00,,,1.64,WeatherDisplay:10.37,2013-02-26 19:42:00,
2013-02-26 14:47:00,38.5,34.7,29.35,SSW,202,0.0,0.0,86,0.00,,,1.64,WeatherDisplay:10.37,2013-02-26 19:47:00,
2013-02-26 14:52:00,38.5,34.7,29.35,WSW,248,0.0,3.5,86,0.00,,,1.64,WeatherDisplay:10.37,2013-02-26 19:52:00,
2013-02-26 14:57:00,38.5,34.7,29.35,SSE,158,0.0,0.0,86,0.00,,,1.64,WeatherDisplay:10.37,2013-02-26 19:57:00,
2013-02-26 15:02:00,38.8,34.7,29.35,South,180,0.0,0.0,85,0.00,,,1.64,WeatherDisplay:10.37,2013-02-26 20:02:00,
2013-02-26 15:07:00,38.8,35.0,29.34,SSW,202,2.1,4.6,86,0.00,,,1.64,WeatherDisplay:10.37,2013-02-26 20:07:00,
2013-02-26 15:13:00,38.8,34.7,29.35,WSW,248,1.1,3.8,85,0.00,,,1.64,WeatherDisplay:10.37,2013-02-26 20:13:00,
2013-02-26 15:18:00,39.0,34.9,29.35,SW,225,0.6,3.5,85,0.00,,,1.64,WeatherDisplay:10.37,2013-02-26 20:18:00,
2013-02-26 15:23:00,39.0,34.9,29.35,WSW,248,1.3,3.5,85,0.02,RA,,1.66,WeatherDisplay:10.37,2013-02-26 20:23:00,
2013-02-26 15:28:00,39.0,34.9,29.35,WSW,248,0.2,2.3,85,0.02,RA,,1.66,WeatherDisplay:10.37,2013-02-26 20:28:00,
2013-02-26 15:33:00,39.0,34.9,29.35,WSW,248,0.7,2.3,85,0.02,,,1.66,WeatherDisplay:10.37,2013-02-26 20:33:00,
2013-02-26 15:38:00,39.0,34.9,29.34,WSW,248,0.0,0.0,85,0.02,,,1.66,WeatherDisplay:10.37,2013-02-26 20:38:00,
2013-02-26 15:43:00,39.4,35.2,29.34,SW,225,0.0,0.0,85,0.02,,,1.66,WeatherDisplay:10.37,2013-02-26 20:43:00,
2013-02-26 15:48:00,39.6,35.4,29.34,South,180,0.0,0.0,85,0.02,,,1.66,WeatherDisplay:10.37,2013-02-26 20:48:00,
2013-02-26 15:53:00,39.7,35.6,29.34,SSE,158,0.0,1.1,85,0.02,,,1.66,WeatherDisplay:10.37,2013-02-26 20:53:00,
2013-02-26 15:58:00,39.6,35.4,29.34,SSE,158,0.0,0.0,85,0.02,,,1.66,WeatherDisplay:10.37,2013-02-26 20:58:00,
2013-02-26 16:03:00,39.6,35.4,29.34,SW,225,0.0,0.0,85,0.02,,,1.66,WeatherDisplay:10.37,2013-02-26 21:03:00,
2013-02-26 16:08:00,39.6,35.4,29.34,ESE,112,0.0,0.0,85,0.02,,,1.66,WeatherDisplay:10.37,2013-02-26 21:08:00,
2013-02-26 16:13:00,39.6,35.4,29.34,South,180,0.0,0.0,85,0.02,,,1.66,WeatherDisplay:10.37,2013-02-26 21:13:00,
2013-02-26 16:18:00,39.6,35.4,29.33,South,180,0.0,0.0,85,0.02,,,1.66,WeatherDisplay:10.37,2013-02-26 21:18:00,
2013-02-26 16:23:00,39.7,35.6,29.33,South,180,0.0,0.0,85,0.00,,,1.66,WeatherDisplay:10.37,2013-02-26 21:23:00,
2013-02-26 16:28:00,39.7,35.6,29.33,SSE,158,0.0,0.0,85,0.00,,,1.66,WeatherDisplay:10.37,2013-02-26 21:28:00,
2013-02-26 16:33:00,39.9,35.8,29.33,SSE,158,0.0,0.0,85,0.00,,,1.66,WeatherDisplay:10.37,2013-02-26 21:33:00,
2013-02-26 16:38:00,39.9,35.8,29.33,SSE,158,0.0,0.0,85,0.00,,,1.66,WeatherDisplay:10.37,2013-02-26 21:38:00,
2013-02-26 16:43:00,39.9,35.8,29.32,SSE,158,0.0,0.0,85,0.00,,,1.66,WeatherDisplay:10.37,2013-02-26 21:43:00,
2013-02-26 16:48:00,40.1,36.0,29.32,SSE,158,0.0,0.0,85,0.00,,,1.66,WeatherDisplay:10.37,2013-02-26 21:48:00,
2013-02-26 16:53:00,40.1,36.0,29.32,SSE,158,0.0,0.0,85,0.00,,,1.66,WeatherDisplay:10.37,2013-02-26 21:53:00,
2013-02-26 16:58:00,39.9,35.8,29.32,SSE,158,0.0,0.0,85,0.00,,,1.66,WeatherDisplay:10.37,2013-02-26 21:58:00,
2013-02-26 17:03:00,39.9,35.8,29.32,SSE,158,0.0,0.0,85,0.00,,,1.66,WeatherDisplay:10.37,2013-02-26 22:03:00,
2013-02-26 17:08:00,39.9,35.8,29.32,SSE,158,0.0,0.0,85,0.00,,,1.66,WeatherDisplay:10.37,2013-02-26 22:08:00,
2013-02-26 17:13:00,39.9,35.8,29.32,SSE,158,0.0,0.0,85,0.00,,,1.66,WeatherDisplay:10.37,2013-02-26 22:13:00,
2013-02-26 17:18:00,39.7,35.9,29.32,SSE,158,0.0,0.0,86,0.00,,,1.66,WeatherDisplay:10.37,2013-02-26 22:18:00,
2013-02-26 17:23:00,39.7,35.9,29.32,SSE,158,0.0,0.0,86,0.00,,,1.66,WeatherDisplay:10.37,2013-02-26 22:23:00,
2013-02-26 17:28:00,39.7,35.6,29.32,SSE,158,0.0,0.0,85,0.00,,,1.66,WeatherDisplay:10.37,2013-02-26 22:28:00,
2013-02-26 17:33:00,39.7,35.9,29.32,SSE,158,0.0,0.0,86,0.00,,,1.66,WeatherDisplay:10.37,2013-02-26 22:33:00,
2013-02-26 17:38:00,39.7,35.9,29.32,SSE,158,0.0,0.0,86,0.00,,,1.66,WeatherDisplay:10.37,2013-02-26 22:38:00,
2013-02-26 17:43:00,39.6,35.7,29.32,NNE,22,0.0,0.0,86,0.00,,,1.66,WeatherDisplay:10.37,2013-02-26 22:43:00,
2013-02-26 17:48:00,39.4,35.5,29.33,NNE,22,0.0,0.0,86,0.00,,,1.66,WeatherDisplay:10.37,2013-02-26 22:48:00,
2013-02-26 17:53:00,39.4,35.5,29.34,NNE,22,0.0,0.0,86,0.00,,,1.66,WeatherDisplay:10.37,2013-02-26 22:53:00,
2013-02-26 17:58:00,39.4,35.5,29.34,NNE,22,0.0,0.0,86,0.00,,,1.66,WeatherDisplay:10.37,2013-02-26 22:58:00,
2013-02-26 18:03:00,39.0,35.5,29.34,WSW,248,0.0,0.0,87,0.00,,,1.66,WeatherDisplay:10.37,2013-02-26 23:03:00,
2013-02-26 18:08:00,39.0,35.5,29.34,WSW,248,0.0,0.0,87,0.00,,,1.66,WeatherDisplay:10.37,2013-02-26 23:08:00,
2013-02-26 18:13:00,39.4,35.8,29.34,SSW,202,0.0,0.0,87,0.00,,,1.66,WeatherDisplay:10.37,2013-02-26 23:13:00,
2013-02-26 18:18:00,39.6,36.3,29.34,SSW,202,0.0,0.0,88,0.00,,,1.66,WeatherDisplay:10.37,2013-02-26 23:18:00,
2013-02-26 18:23:00,39.6,36.3,29.35,SSW,202,0.0,0.0,88,0.00,,,1.66,WeatherDisplay:10.37,2013-02-26 23:23:00,
2013-02-26 18:28:00,39.6,36.3,29.35,SW,225,0.0,0.0,88,0.00,,,1.66,WeatherDisplay:10.37,2013-02-26 23:28:00,
2013-02-26 18:33:00,39.6,36.3,29.35,SW,225,0.0,0.0,88,0.00,,,1.66,WeatherDisplay:10.37,2013-02-26 23:33:00,
2013-02-26 18:38:00,39.6,36.3,29.35,West,270,0.0,0.0,88,0.00,,,1.66,WeatherDisplay:10.37,2013-02-26 23:38:00,
2013-02-26 18:43:00,39.6,36.3,29.35,West,270,0.0,0.0,88,0.00,,,1.66,WeatherDisplay:10.37,2013-02-26 23:43:00,
2013-02-26 18:48:00,39.6,36.3,29.35,South,180,0.0,0.0,88,0.00,,,1.66,WeatherDisplay:10.37,2013-02-26 23:48:00,
2013-02-26 18:53:00,39.7,36.5,29.36,South,180,0.0,0.0,88,0.00,,,1.66,WeatherDisplay:10.37,2013-02-26 23:53:00,
2013-02-26 18:58:00,39.7,36.5,29.36,South,180,0.0,0.0,88,0.00,,,1.66,WeatherDisplay:10.37,2013-02-26 23:58:00,
2013-02-26 19:03:00,39.7,36.5,29.36,South,180,0.0,0.0,88,0.00,,,1.66,WeatherDisplay:10.37,2013-02-27 00:03:00,
2013-02-26 19:08:00,39.6,36.3,29.36,South,180,0.0,0.0,88,0.00,,,1.66,WeatherDisplay:10.37,2013-02-27 00:08:00,
2013-02-26 19:13:00,39.6,36.3,29.37,West,270,0.0,0.0,88,0.00,,,1.66,WeatherDisplay:10.37,2013-02-27 00:13:00,
2013-02-26 19:18:00,39.4,35.8,29.37,WNW,292,0.0,0.0,87,0.00,,,1.66,WeatherDisplay:10.37,2013-02-27 00:18:00,
2013-02-26 19:23:00,39.0,35.5,29.38,West,270,0.0,0.0,87,0.00,,,1.66,WeatherDisplay:10.37,2013-02-27 00:23:00,
2013-02-26 19:28:00,39.0,35.8,29.37,WSW,248,0.0,0.0,88,0.00,,,1.66,WeatherDisplay:10.37,2013-02-27 00:28:00,
2013-02-26 19:33:00,39.4,36.1,29.37,WSW,248,0.0,0.0,88,0.00,,,1.66,WeatherDisplay:10.37,2013-02-27 00:33:00,
2013-02-26 19:38:00,39.4,36.1,29.37,SW,225,0.0,0.0,88,0.00,,,1.66,WeatherDisplay:10.37,2013-02-27 00:38:00,
2013-02-26 19:43:00,39.6,36.3,29.37,SSW,202,0.0,0.0,88,0.00,,,1.66,WeatherDisplay:10.37,2013-02-27 00:43:00,
2013-02-26 19:48:00,39.6,36.3,29.36,SSW,202,0.0,0.0,88,0.00,,,1.66,WeatherDisplay:10.37,2013-02-27 00:48:00,
2013-02-26 19:53:00,39.7,36.5,29.36,WSW,248,0.0,0.0,88,0.00,,,1.66,WeatherDisplay:10.37,2013-02-27 00:53:00,
2013-02-26 19:58:00,39.7,36.5,29.36,SW,225,0.3,1.1,88,0.00,,,1.66,WeatherDisplay:10.37,2013-02-27 00:58:00,
2013-02-26 20:03:00,39.9,36.7,29.36,SW,225,0.0,0.0,88,0.00,,,1.66,WeatherDisplay:10.37,2013-02-27 01:03:00,
2013-02-26 20:08:00,39.9,36.7,29.36,SW,225,0.0,0.0,88,0.00,,,1.66,WeatherDisplay:10.37,2013-02-27 01:08:00,
2013-02-26 20:13:00,40.1,36.8,29.37,SSE,158,0.0,0.0,88,0.00,,,1.66,WeatherDisplay:10.37,2013-02-27 01:13:00,
2013-02-26 20:18:00,40.1,36.8,29.36,SSW,202,0.0,0.7,88,0.00,,,1.66,WeatherDisplay:10.37,2013-02-27 01:18:00,
2013-02-26 20:23:00,40.1,36.8,29.36,SSW,202,0.0,0.0,88,0.00,,,1.66,WeatherDisplay:10.37,2013-02-27 01:23:00,
2013-02-26 20:28:00,40.1,36.8,29.37,WSW,248,0.0,0.0,88,0.00,,,1.66,WeatherDisplay:10.37,2013-02-27 01:28:00,
2013-02-26 20:33:00,39.9,36.7,29.38,WSW,248,1.2,4.6,88,0.00,,,1.66,WeatherDisplay:10.37,2013-02-27 01:33:00,
2013-02-26 20:38:00,39.9,36.7,29.38,West,270,0.0,0.0,88,0.00,,,1.66,WeatherDisplay:10.37,2013-02-27 01:38:00,
2013-02-26 20:43:00,39.9,36.7,29.38,SW,225,1.0,3.5,88,0.00,,,1.66,WeatherDisplay:10.37,2013-02-27 01:43:00,
2013-02-26 20:48:00,39.9,36.7,29.37,SSW,202,2.0,3.5,88,0.00,,,1.66,WeatherDisplay:10.37,2013-02-27 01:48:00,
2013-02-26 20:53:00,40.1,36.8,29.38,WSW,248,2.9,10.4,88,0.00,,,1.66,WeatherDisplay:10.37,2013-02-27 01:53:00,
2013-02-26 20:58:00,40.3,37.0,29.38,SSW,202,0.0,0.0,88,0.00,,,1.66,WeatherDisplay:10.37,2013-02-27 01:58:00,
2013-02-26 21:03:00,40.6,37.4,29.37,NW,315,0.0,0.0,88,0.00,,,1.66,WeatherDisplay:10.37,2013-02-27 02:03:00,
2013-02-26 21:08:00,40.8,37.3,29.38,WSW,248,3.3,8.1,87,0.00,,,1.66,WeatherDisplay:10.37,2013-02-27 02:08:00,
2013-02-26 21:13:00,41.2,37.3,29.38,WSW,248,5.9,8.3,86,0.00,,,1.66,WeatherDisplay:10.37,2013-02-27 02:13:00,
2013-02-26 21:18:00,41.7,37.2,29.37,WSW,248,10.5,15.0,84,0.00,,,1.66,WeatherDisplay:10.37,2013-02-27 02:18:00,
2013-02-26 21:24:00,42.1,37.0,29.37,WNW,292,10.4,13.8,82,0.00,,,1.66,WeatherDisplay:10.37,2013-02-27 02:24:00,
2013-02-26 21:29:00,42.4,37.3,29.37,SSW,202,2.8,6.9,82,0.00,,,1.66,WeatherDisplay:10.37,2013-02-27 02:29:00,
2013-02-26 21:34:00,42.4,37.0,29.37,SSW,202,4.4,11.2,81,0.00,,,1.66,WeatherDisplay:10.37,2013-02-27 02:34:00,
2013-02-26 21:39:00,42.4,37.0,29.36,SSW,202,4.7,9.2,81,0.00,,,1.66,WeatherDisplay:10.37,2013-02-27 02:39:00,
2013-02-26 21:44:00,42.4,37.0,29.37,SW,225,3.3,5.8,81,0.00,,,1.66,WeatherDisplay:10.37,2013-02-27 02:44:00,
2013-02-26 21:49:00,42.1,36.7,29.36,NE,45,0.0,0.0,81,0.00,,,1.66,WeatherDisplay:10.37,2013-02-27 02:49:00,
2013-02-26 21:54:00,41.9,36.5,29.37,NE,45,0.0,0.0,81,0.00,,,1.66,WeatherDisplay:10.37,2013-02-27 02:54:00,
2013-02-26 21:59:00,41.4,36.3,29.36,NNE,22,0.0,0.0,82,0.00,,,1.66,WeatherDisplay:10.37,2013-02-27 02:59:00,
2013-02-26 22:04:00,40.8,36.1,29.37,NNE,22,0.0,0.0,83,0.00,,,1.66,WeatherDisplay:10.37,2013-02-27 03:04:00,
2013-02-26 22:09:00,40.3,35.5,29.37,NNE,22,0.0,0.0,83,0.00,,,1.66,WeatherDisplay:10.37,2013-02-27 03:09:00,
2013-02-26 22:14:00,39.9,35.2,29.37,NNE,22,0.0,0.0,83,0.00,,,1.66,WeatherDisplay:10.37,2013-02-27 03:14:00,
2013-02-26 22:19:00,39.4,34.9,29.37,NNE,22,0.0,0.0,84,0.00,,,1.66,WeatherDisplay:10.37,2013-02-27 03:19:00,
2013-02-26 22:24:00,39.0,34.6,29.36,NNE,22,0.0,0.0,84,0.00,,,1.66,WeatherDisplay:10.37,2013-02-27 03:24:00,
2013-02-26 22:29:00,38.8,34.7,29.37,NNE,22,0.0,0.0,85,0.00,,,1.66,WeatherDisplay:10.37,2013-02-27 03:29:00,
2013-02-26 22:34:00,38.8,34.7,29.37,NNE,22,0.0,0.0,85,0.00,,,1.66,WeatherDisplay:10.37,2013-02-27 03:34:00,
2013-02-26 22:39:00,38.8,34.7,29.37,NNE,22,0.0,0.0,85,0.00,,,1.66,WeatherDisplay:10.37,2013-02-27 03:39:00,
2013-02-26 22:44:00,38.5,34.4,29.36,NNE,22,0.0,0.0,85,0.00,,,1.66,WeatherDisplay:10.37,2013-02-27 03:44:00,
2013-02-26 22:49:00,38.3,34.5,29.36,NNE,22,0.0,0.0,86,0.00,,,1.66,WeatherDisplay:10.37,2013-02-27 03:49:00,
2013-02-26 22:54:00,38.1,34.3,29.36,NNE,22,0.0,0.0,86,0.00,,,1.66,WeatherDisplay:10.37,2013-02-27 03:54:00,
2013-02-26 22:59:00,37.9,34.1,29.37,NNE,22,0.0,0.0,86,0.00,,,1.66,WeatherDisplay:10.37,2013-02-27 03:59:00,
2013-02-26 23:04:00,38.1,34.3,29.36,NNE,22,0.0,0.0,86,0.00,,,1.66,WeatherDisplay:10.37,2013-02-27 04:04:00,
2013-02-26 23:09:00,38.1,34.3,29.36,North,0,0.0,0.0,86,0.00,,,1.66,WeatherDisplay:10.37,2013-02-27 04:09:00,
2013-02-26 23:14:00,38.1,34.3,29.36,North,0,0.0,0.0,86,0.00,,,1.66,WeatherDisplay:10.37,2013-02-27 04:14:00,
2013-02-26 23:19:00,38.1,34.0,29.37,North,0,0.0,0.0,85,0.00,,,1.66,WeatherDisplay:10.37,2013-02-27 04:19:00,
2013-02-26 23:24:00,37.8,33.9,29.37,North,0,0.0,2.3,86,0.00,,,1.66,WeatherDisplay:10.37,2013-02-27 04:24:00,
2013-02-26 23:29:00,37.6,33.8,29.37,North,0,0.0,0.0,86,0.00,,,1.66,WeatherDisplay:10.37,2013-02-27 04:29:00,
2013-02-26 23:34:00,37.4,33.6,29.37,North,0,0.0,0.0,86,0.00,,,1.66,WeatherDisplay:10.37,2013-02-27 04:34:00,
2013-02-26 23:39:00,37.2,33.4,29.37,North,0,0.0,0.0,86,0.00,,,1.66,WeatherDisplay:10.37,2013-02-27 04:39:00,
2013-02-26 23:44:00,37.2,33.4,29.36,North,0,0.0,0.0,86,0.00,,,1.66,WeatherDisplay:10.37,2013-02-27 04:44:00,
2013-02-26 23:49:00,37.2,33.4,29.37,North,0,0.0,0.0,86,0.00,,,1.66,WeatherDisplay:10.37,2013-02-27 04:49:00,
2013-02-26 23:54:00,37.2,33.4,29.37,North,0,0.0,0.0,86,0.00,,,1.66,WeatherDisplay:10.37,2013-02-27 04:54:00,
2013-02-26 23:59:00,37.0,33.2,29.37,North,0,0.1,2.3,86,0.00,,,1.66,WeatherDisplay:10.37,2013-02-27 04:59:00,